IRIDIUM 8 1 24792U 97020A 08286.37391737 .00000206 00000-0 66458-4 0 3665 2 24792 086.4007 203.4152 0002428 073.1579 286.9882 14.34218558598866 IRIDIUM 7 1 24793U 97020B 08286.36757035 .00000111 00000-0 32635-4 0 3599 2 24793 086.3997 203.5396 0002359 076.7525 283.3933 14.34218494598865 IRIDIUM 6 1 24794U 97020C 08286.36122916 .00000184 00000-0 58599-4 0 1601 2 24794 086.4010 203.5333 0002160 074.7700 285.3733 14.34218893598860 IRIDIUM 5 1 24795U 97020D 08286.14561234 .00000124 00000-0 37164-4 0 4644 2 24795 086.3996 203.7902 0002600 110.0293 250.1183 14.34217957598912 IRIDIUM 4 1 24796U 97020E 08286.38024351 .00000132 00000-0 39901-4 0 3846 2 24796 086.4003 203.3223 0002334 073.5525 286.5927 14.34218685598884 IRIDIUM 914 1 24836U 97030A 08286.44239855 .00000105 00000-0 28404-4 0 388 2 24836 086.3927 228.2893 0004030 071.2966 288.8669 14.37409530593439 IRIDIUM 12 1 24837U 97030B 08286.44065088 .00000135 00000-0 40996-4 0 3740 2 24837 086.3935 234.8380 0002490 075.7585 284.3886 14.34215177592628 IRIDIUM 10 1 24839U 97030D 08286.42798911 .00000123 00000-0 36813-4 0 3658 2 24839 086.3939 234.8424 0002468 074.9035 285.2432 14.34214117592630 IRIDIUM 13 1 24840U 97030E 08286.44700379 .00000178 00000-0 56473-4 0 3398 2 24840 086.3936 234.9030 0002395 074.9817 285.1643 14.34215161592622 IRIDIUM 16 1 24841U 97030F 08286.46654927 .00000161 00000-0 49216-4 0 3533 2 24841 086.4019 235.3797 0001891 127.9955 232.1412 14.35252272592747 IRIDIUM 911 1 24842U 97030G 08285.79400054 +.00000114 +00000-0 +27954-4 0 01226 2 24842 086.4437 237.9650 0015204 152.8267 207.3735 14.43132564595468 IRIDIUM 15 1 24869U 97034A 08286.50742800 -.00000114 00000-0 -47927-4 0 3896 2 24869 086.3897 266.4871 0002548 079.7582 280.3901 14.34214012589606 IRIDIUM 17 1 24870U 97034B 08286.07129536 .00000099 00000-0 28105-4 0 3465 2 24870 086.3899 266.6029 0002457 074.6360 285.5113 14.34402297589554 IRIDIUM 920 1 24871U 97034C 08286.91721381 .00000149 00000-0 42835-4 0 622 2 24871 086.3914 259.9377 0010695 323.7243 036.3229 14.38038369590691 IRIDIUM 18 1 24872U 97034D 08286.46941025 .00000001 00000-0 -68342-5 0 3568 2 24872 086.3900 266.6366 0002364 079.0170 281.1292 14.34213724589597 IRIDIUM 921 1 24873U 97034E 08285.95976222 +.00000380 +00000-0 +30293-4 0 03752 2 24873 086.3826 106.0344 0010140 016.4097 343.7451 14.97012037612077 IRIDIUM 26 1 24903U 97043A 08286.52544027 -.00000062 00000-0 -29117-4 0 4678 2 24903 086.3991 140.3020 0002226 075.3040 284.8406 14.34221764583548 IRIDIUM 25 1 24904U 97043B 08286.55715371 .00000033 00000-0 46029-5 0 3693 2 24904 086.3986 140.2424 0002231 076.5954 283.5488 14.34222161583518 IRIDIUM 46 1 24905U 97043C 08286.56983945 -.00000277 00000-0 -10604-3 0 3802 2 24905 086.4000 140.4963 0002206 075.7320 284.4140 14.34218883583529 IRIDIUM 23 1 24906U 97043D 08286.54446819 .00000064 00000-0 15783-4 0 3788 2 24906 086.3991 140.1865 0002230 076.5600 283.5846 14.34222300583525 IRIDIUM 22 1 24907U 97043E 08286.53812717 -.00000202 00000-0 -79354-4 0 3490 2 24907 086.3988 140.5490 0002274 076.4458 283.7006 14.34218693583528 DUMMY MASS 1 1 24925U 97048A 08285.48788486 +.00000071 +00000-0 +52296-5 0 00208 2 24925 086.3314 063.3275 0009830 076.6033 283.6289 14.83809876601256 DUMMY MASS 2 1 24926U 97048B 08286.46360154 .00000049 00000-0 24945-5 0 100 2 24926 086.3306 063.4864 0010715 076.9925 283.2481 14.83591014601319 IRIDIUM 29 1 24944U 97051A 08286.33866965 .00000139 00000-0 42523-4 0 3240 2 24944 086.4020 171.9053 0002314 076.6651 283.4799 14.34224993580064 IRIDIUM 32 1 24945U 97051B 08286.28794053 .00000126 00000-0 38068-4 0 3383 2 24945 086.4035 171.9402 0002300 075.4810 284.6640 14.34224784580075 IRIDIUM 33 1 24946U 97051C 08286.29430576 .00000100 00000-0 28781-4 0 3307 2 24946 086.4024 171.9934 0002296 073.8677 286.2771 14.34224247580067 IRIDIUM 28 1 24948U 97051E 08286.26241465 .00000097 00000-0 27543-4 0 1873 2 24948 086.4029 172.0970 0002204 088.3805 271.7642 14.34223437580043 IRIDIUM 30 1 24949U 97051F 08286.56066658 .00000143 00000-0 44078-4 0 3759 2 24949 086.4022 171.8750 0002232 070.1472 289.9966 14.34224963580090 IRIDIUM 31 1 24950U 97051G 08286.27524808 .00000108 00000-0 31504-4 0 3565 2 24950 086.4035 171.9844 0002279 074.1852 285.9595 14.34224780580066 IRIDIUM 19 1 24965U 97056A 08286.32950897 .00000133 00000-0 40441-4 0 3303 2 24965 086.4005 203.4072 0002320 077.8023 282.3429 14.34218572578213 IRIDIUM 35 1 24966U 97056B 08286.34220273 .00000177 00000-0 56293-4 0 3764 2 24966 086.4008 203.4284 0002406 074.3543 285.7916 14.34218786578198 IRIDIUM 36 1 24967U 97056C 08286.33630175 .00000088 00000-0 24436-4 0 3147 2 24967 086.4020 203.4953 0002399 080.5402 279.6063 14.34275741578335 IRIDIUM 37 1 24968U 97056D 08286.38658364 .00000141 00000-0 43279-4 0 3497 2 24968 086.4012 203.5012 0002416 073.9172 286.2290 14.34218830578202 IRIDIUM 34 1 24969U 97056E 08286.33584578 .00000146 00000-0 45037-4 0 3385 2 24969 086.3998 203.4695 0002398 078.6385 281.5079 14.34218998578194 IRIDIUM 43 1 25039U 97069A 08286.46302996 -.00000185 00000-0 -73028-4 0 3234 2 25039 086.3902 266.6561 0002552 080.4317 279.7169 14.34213497571998 IRIDIUM 41 1 25040U 97069B 08286.45671578 .00000045 00000-0 90199-5 0 3164 2 25040 086.3902 266.5759 0002527 080.1107 280.0375 14.34214248571993 IRIDIUM 40 1 25041U 97069C 08286.48206731 -.00000014 00000-0 -12121-4 0 3383 2 25041 086.3900 266.5363 0002491 079.9154 280.2318 14.34214505572010 IRIDIUM 39 1 25042U 97069D 08286.48842480 .00000954 00000-0 33346-3 0 3226 2 25042 086.3893 266.6854 0002304 079.2778 280.8662 14.34225444571994 IRIDIUM 38 1 25043U 97069E 08286.49945003 .00000139 00000-0 42046-4 0 3451 2 25043 086.3898 266.0238 0002123 107.0370 253.1055 14.34665716572098 IRIDIUM 42 1 25077U 97077A 08286.47573123 -.00000027 00000-0 -16596-4 0 3319 2 25077 086.3895 266.6104 0002503 080.9475 279.2004 14.34214492567859 IRIDIUM 44 1 25078U 97077B 08285.53432006 +.00000089 +00000-0 +23609-4 0 09416 2 25078 086.3899 262.9129 0001565 119.4851 240.6503 14.36514588568233 IRIDIUM 45 1 25104U 97082A 08286.56349803 .00000089 00000-0 24751-4 0 2847 2 25104 086.3988 140.2714 0002225 077.3901 282.7555 14.34222319566061 IRIDIUM 24 1 25105U 97082B 08286.44911077 .00000117 00000-0 32011-4 0 9907 2 25105 086.3917 131.7603 0011031 332.6640 027.3977 14.38238505567046 IRIDIUM 47 1 25106U 97082C 08286.50641445 .00000020 00000-0 20723-6 0 2707 2 25106 086.3995 140.2378 0002200 074.2680 285.8759 14.34222184566059 IRIDIUM 49 1 25108U 97082E 08286.51909874 .00000042 00000-0 81096-5 0 2896 2 25108 086.3978 140.2461 0002200 072.2861 287.8580 14.34222077566060 IRIDIUM 52 1 25169U 98010A 08286.47870390 .00000095 00000-0 26894-4 0 801 2 25169 086.3942 234.9704 0002477 076.3344 283.8126 14.34215255557462 IRIDIUM 56 1 25170U 98010B 08286.47233253 -.00000158 00000-0 -63608-4 0 4275 2 25170 086.3941 235.0131 0002465 074.4717 285.6751 14.34210763557440 IRIDIUM 54 1 25171U 98010C 08286.43430384 .00000132 00000-0 39957-4 0 2993 2 25171 086.3943 234.9916 0002522 076.9269 283.2206 14.34215396557609 IRIDIUM 50 1 25172U 98010D 08286.39623176 .00000112 00000-0 32836-4 0 3170 2 25172 086.3940 234.9793 0002442 077.6783 282.4684 14.34215454557437 IRIDIUM 53 1 25173U 98010E 08286.41527255 .00000132 00000-0 39987-4 0 3081 2 25173 086.3941 234.9818 0002444 074.4863 285.6597 14.34215442557449 IRIDIUM 51 1 25262U 98018A 08286.49257845 .00000178 00000-0 47159-4 0 4082 2 25262 086.4523 203.4797 0002480 072.6001 287.5469 14.42952195555658 IRIDIUM 61 1 25263U 98018B 08286.53247967 .00000105 00000-0 30345-4 0 2595 2 25263 086.4006 203.4182 0002355 074.0307 286.1147 14.34218331552551 IRIDIUM 55 1 25272U 98019A 08286.39574340 -.00000708 00000-0 -25995-3 0 2504 2 25272 086.4024 171.8293 0002326 075.9067 284.2386 14.34220270551731 IRIDIUM 57 1 25273U 98019B 08286.44015578 .00000125 00000-0 37440-4 0 2863 2 25273 086.4025 171.9769 0002305 075.6374 284.5078 14.34224749551744 IRIDIUM 58 1 25274U 98019C 08286.30696287 .00000078 00000-0 20619-4 0 1058 2 25274 086.4041 172.1348 0002202 074.4937 285.6502 14.34224520551726 IRIDIUM 59 1 25275U 98019D 08286.24353344 .00000141 00000-0 43358-4 0 9410 2 25275 086.4033 172.1857 0002456 059.2153 300.9280 14.34225065551713 IRIDIUM 60 1 25276U 98019E 08286.38942786 .00000136 00000-0 41438-4 0 3202 2 25276 086.4028 171.8697 0002268 077.6982 282.4466 14.34224478551730 IRIDIUM 62 1 25285U 98021A 08286.56009187 -.00000012 00000-0 -11273-4 0 2808 2 25285 086.3921 108.6856 0002250 076.1158 284.0279 14.34216364550718 IRIDIUM 63 1 25286U 98021B 08286.56643808 .00000010 00000-0 -34893-5 0 2860 2 25286 086.3929 108.7620 0002239 078.4773 281.6667 14.34216350550711 IRIDIUM 64 1 25287U 98021C 08286.57277995 .00000002 00000-0 -64536-5 0 2433 2 25287 086.3918 108.7002 0002237 079.1439 281.0004 14.34216112550691 IRIDIUM 65 1 25288U 98021D 08286.50936339 .00000023 00000-0 10933-5 0 2941 2 25288 086.3916 108.6833 0002213 075.6973 284.4474 14.34216164550706 IRIDIUM 66 1 25289U 98021E 08286.51568914 -.00000079 00000-0 -35143-4 0 2530 2 25289 086.3912 108.6121 0002158 077.5553 282.5885 14.34215663550704 IRIDIUM 67 1 25290U 98021F 08286.52204677 -.00000033 00000-0 -18803-4 0 695 2 25290 086.3918 108.6957 0002222 078.9080 281.2365 14.34215944550713 IRIDIUM 68 1 25291U 98021G 08286.52838956 -.00000025 00000-0 -16142-4 0 2887 2 25291 086.3915 108.7536 0002188 078.2383 281.9046 14.34215981550685 IRIDIUM 69 1 25319U 98026A 08286.20573151 .00000069 00000-0 16610-4 0 1088 2 25319 086.3989 137.2493 0001123 131.1047 229.0240 14.37051861547560 IRIDIUM 71 1 25320U 98026B 08286.69738993 .00000083 00000-0 20873-4 0 9248 2 25320 086.3967 134.6002 0002132 019.5459 340.5823 14.37646224547909 IRIDIUM 70 1 25342U 98032A 08286.55375572 .00000025 00000-0 19166-5 0 3079 2 25342 086.3926 108.8397 0002249 076.8778 283.2661 14.34216422544794 IRIDIUM 72 1 25343U 98032B 08286.54107098 -.00000022 00000-0 -15005-4 0 2935 2 25343 086.3919 108.6621 0002185 077.1881 282.9557 14.34216038544796 IRIDIUM 73 1 25344U 98032C 08286.42799894 .00000104 00000-0 22944-4 0 1460 2 25344 086.4366 100.0142 0002080 092.8528 267.2920 14.47088170548897 IRIDIUM 74 1 25345U 98032D 08286.51264058 .00000031 00000-0 31110-5 0 3108 2 25345 086.4433 108.8022 0002357 077.2273 282.9188 14.42948784545671 IRIDIUM 75 1 25346U 98032E 08286.54741272 -.00000043 00000-0 -22546-4 0 3220 2 25346 086.3915 108.7982 0002212 076.7288 283.4146 14.34216098545363 IRIDIUM 03 1 25431U 98048A 08286.53178225 .00000060 00000-0 14220-4 0 2498 2 25431 086.3983 140.3875 0001676 068.7163 291.4219 14.34222310531305 IRIDIUM 76 1 25432U 98048B 08286.55081271 .00000061 00000-0 14748-4 0 1816 2 25432 086.3984 140.2363 0002393 061.2924 298.8523 14.34222198531299 IRIDIUM 82 1 25467U 98051A 08286.52013392 -.00000008 00000-0 -10014-4 0 4137 2 25467 086.3906 266.5857 0002076 103.2585 256.8841 14.34214094532305 IRIDIUM 81 1 25468U 98051B 08286.51375932 -.00000198 00000-0 -77658-4 0 2458 2 25468 086.3900 266.4610 0002610 080.6012 279.5479 14.34210561528526 IRIDIUM 80 1 25469U 98051C 08286.49476613 -.00000026 00000-0 -16409-4 0 2428 2 25469 086.3905 266.5783 0002493 082.4531 277.6942 14.34213960528529 IRIDIUM 77 1 25471U 98051E 08286.50108738 -.00000017 00000-0 -13275-4 0 4175 2 25471 086.3890 266.4723 0001712 055.4770 304.6583 14.34214470533723 IRIDIUM 2 1 25527U 98066A 08286.55849945 .00000586 00000-0 47102-4 0 6100 2 25527 085.5596 061.5056 0011213 008.1952 351.9452 14.97840878541169 IRIDIUM 86 1 25528U 98066B 08286.45968804 .00000133 00000-0 40522-4 0 4651 2 25528 086.3935 234.7288 0001672 069.8033 290.3341 14.34214855525042 IRIDIUM 84 1 25530U 98066D 08286.42161431 .00000099 00000-0 28251-4 0 1284 2 25530 086.3926 234.8484 0002429 076.7591 283.3874 14.34215278522670 IRIDIUM 83 1 25531U 98066E 08286.45331423 .00000113 00000-0 33350-4 0 2372 2 25531 086.3937 234.8390 0002511 074.6535 285.4938 14.34215470520032 IRIDIUM 20 1 25577U 98074A 08286.58252689 .00000009 00000-0 -39629-5 0 1731 2 25577 086.3970 140.1908 0002257 076.9090 283.2357 14.34221996514136 IRIDIUM 11 1 25578U 98074B 08286.57914659 -.00000204 00000-0 -52491-4 0 3464 2 25578 086.5176 140.3741 0002409 077.1248 283.0231 14.54937563521549 IRIDIUM 14 1 25777U 99032A 08286.50661936 .00000041 00000-0 46356-5 0 3168 2 25777 086.5106 108.7405 0003161 075.2055 284.9501 14.54935259495910 IRIDIUM 21 1 25778U 99032B 08286.53472613 -.00000053 00000-0 -26083-4 0 2320 2 25778 086.3919 108.7384 0003646 045.0420 315.1068 14.34216102493804 IRIDIUM 91 1 27372U 02005A 08286.54426707 .00000110 00000-0 15578-4 0 8145 2 27372 086.5862 172.0465 0005501 124.6925 235.4808 14.66605704356860 IRIDIUM 90 1 27373U 02005B 08286.42865615 .00000124 00000-0 31144-4 0 7914 2 27373 086.4450 234.6578 0007476 086.2893 273.9160 14.42945707354267 IRIDIUM 94 1 27374U 02005C 08286.55081785 .00000165 00000-0 25429-4 0 8349 2 27374 086.5853 171.6705 0002483 074.4293 285.7194 14.66605602356863 IRIDIUM 95 1 27375U 02005D 08286.26255324 .00000108 00000-0 31530-4 0 8134 2 27375 086.4035 171.9523 0002297 073.5139 286.6308 14.34225101356569 IRIDIUM 96 1 27376U 02005E 08286.29014670 -.00000149 00000-0 -31146-4 0 8360 2 27376 086.5850 171.7401 0002441 076.9836 283.1649 14.66603797356826 IRIDIUM 97 1 27450U 02031A 08286.34854204 .00000170 00000-0 53751-4 0 7337 2 27450 086.4009 203.6838 0004584 113.8561 246.3113 14.34217559335892 IRIDIUM 98 1 27451U 02031B 08286.45388760 .00000010 00000-0 -31392-5 0 7397 2 27451 086.4434 266.6544 0003358 157.1324 203.0030 14.42945693335124